| time (UTC) | temp C | wind direction | speed KPH | gust KPH | rain 1hr cm | rain 24hr cm | rain mn cm | humidity % | barometer mb |
| 20260506044559 | 17 | 157 | 0.0 | 3.2 | 0.00 | 0.00 | 0.00 | 62 | 1006.5 |
| 20260506043104 | 17 | 157 | 1.6 | 9.7 | 0.00 | 0.00 | 0.00 | 62 | 1006.4 |
| 20260506041553 | 18 | 186 | 3.2 | 12.9 | 0.00 | 0.00 | 0.00 | 60 | 1006.4 |
| 20260506040100 | 18 | 154 | 4.8 | 11.3 | 0.00 | 0.00 | 0.00 | 58 | 1006.3 |
| 20260506034551 | 18 | 149 | 4.8 | 14.5 | 0.00 | 0.00 | 0.00 | 59 | 1006.3 |
| 20260506033050 | 18 | 142 | 6.4 | 14.5 | 0.00 | 0.00 | 0.00 | 58 | 1006.3 |
| 20260506031551 | 17 | 147 | 4.8 | 12.9 | 0.00 | 0.00 | 0.00 | 59 | 1006.3 |
| 20260506030054 | 17 | 140 | 4.8 | 11.3 | 0.00 | 0.00 | 0.00 | 61 | 1006.1 |
| 20260506024555 | 18 | 136 | 3.2 | 8.0 | 0.00 | 0.00 | 0.00 | 57 | 1006.3 |
| 20260506023046 | 18 | 149 | 3.2 | 8.0 | 0.00 | 0.00 | 0.00 | 55 | 1006.3 |
| 20260506021559 | 18 | 152 | 4.8 | 12.9 | 0.00 | 0.00 | 0.00 | 57 | 1006.2 |
| 20260506020046 | 19 | 141 | 3.2 | 11.3 | 0.00 | 0.00 | 0.00 | 54 | 1006.3 |
| 20260506014545 | 20 | 169 | 3.2 | 11.3 | 0.00 | 0.00 | 0.00 | 50 | 1006.3 |
| 20260506013054 | 20 | 157 | 3.2 | 9.7 | 0.00 | 0.00 | 0.00 | 50 | 1006.2 |
| 20260506011552 | 21 | 184 | 8.0 | 19.3 | 0.00 | 0.00 | 0.00 | 49 | 1006.0 |
| 20260506010043 | 21 | 178 | 6.4 | 12.9 | 0.00 | 0.00 | 0.00 | 48 | 1005.8 |
| 20260506004542 | 21 | 175 | 6.4 | 17.7 | 0.00 | 0.00 | 0.00 | 48 | 1005.7 |
| 20260506003042 | 21 | 138 | 4.8 | 12.9 | 0.00 | 0.00 | 0.00 | 49 | 1005.6 |
| 20260506001641 | 21 | 146 | 6.4 | 14.5 | 0.00 | 0.00 | 0.00 | 47 | 1005.2 |
| 20260506000045 | 22 | 169 | 8.0 | 17.7 | 0.00 | 0.00 | 0.00 | 45 | 1005.0 |
| 20260505234540 | 23 | 141 | 6.4 | 16.1 | 0.00 | 0.00 | 0.00 | 46 | 1005.0 |
| 20260505233039 | 24 | 195 | 8.0 | 20.9 | 0.00 | 0.00 | 0.00 | 45 | 1004.9 |
| 20260505231548 | 24 | 167 | 8.0 | 22.5 | 0.00 | 0.00 | 0.00 | 45 | 1004.9 |
| 20260505230039 | 25 | 169 | 9.7 | 25.7 | 0.00 | 0.00 | 0.00 | 44 | 1004.8 |
| 20260505224538 | 25 | 188 | 8.0 | 20.9 | 0.00 | 0.00 | 0.00 | 44 | 1004.8 |
| 20260505223037 | 25 | 145 | 11.3 | 24.1 | 0.00 | 0.00 | 0.00 | 43 | 1004.7 |
| 20260505221538 | 25 | 159 | 11.3 | 22.5 | 0.00 | 0.00 | 0.00 | 42 | 1004.7 |
| 20260505220039 | 26 | 138 | 9.7 | 32.2 | 0.00 | 0.00 | 0.00 | 39 | 1004.8 |
| 20260505214559 | 26 | 178 | 8.0 | 32.2 | 0.00 | 0.00 | 0.00 | 36 | 1004.7 |
| 20260505213035 | 27 | 173 | 14.5 | 27.4 | 0.00 | 0.00 | 0.00 | 35 | 1004.8 |
| 20260505211535 | 28 | 148 | 11.3 | 37.0 | 0.00 | 0.00 | 0.00 | 36 | 1004.6 |
| 20260505210036 | 28 | 170 | 12.9 | 32.2 | 0.00 | 0.00 | 0.00 | 36 | 1004.6 |
| 20260505204533 | 28 | 129 | 20.9 | 32.2 | 0.00 | 0.00 | 0.00 | 36 | 1004.7 |
| 20260505203027 | 28 | 128 | 14.5 | 29.0 | 0.00 | 0.00 | 0.00 | 36 | 1004.6 |
| 20260505201525 | 28 | 167 | 9.7 | 32.2 | 0.00 | 0.00 | 0.00 | 39 | 1004.7 |
| 20260505200029 | 28 | 143 | 17.7 | 29.0 | 0.00 | 0.00 | 0.00 | 37 | 1005.0 |
| 20260505194523 | 28 | 138 | 16.1 | 35.4 | 0.00 | 0.00 | 0.00 | 36 | 1005.0 |
| 20260505193021 | 28 | 157 | 9.7 | 46.7 | 0.00 | 0.00 | 0.00 | 41 | 1005.2 |
| 20260505191519 | 28 | 178 | 16.1 | 33.8 | 0.00 | 0.00 | 0.00 | 38 | 1005.4 |
| 20260505190025 | 28 | 150 | 19.3 | 41.8 | 0.00 | 0.00 | 0.00 | 41 | 1005.4 |
| 20260505184516 | 28 | 167 | 16.1 | 32.2 | 0.00 | 0.00 | 0.00 | 43 | 1005.7 |
| 20260505183016 | 28 | 168 | 9.7 | 33.8 | 0.00 | 0.00 | 0.00 | 46 | 1005.9 |
| 20260505181510 | 27 | 183 | 9.7 | 30.6 | 0.00 | 0.00 | 0.00 | 44 | 1006.1 |
| 20260505180014 | 27 | 107 | 14.5 | 29.0 | 0.00 | 0.00 | 0.00 | 41 | 1006.2 |
| 20260505174509 | 27 | 171 | 19.3 | 40.2 | 0.00 | 0.00 | 0.00 | 45 | 1006.3 |
| 20260505173007 | 27 | 136 | 14.5 | 30.6 | 0.00 | 0.00 | 0.00 | 45 | 1006.3 |
| 20260505171508 | 27 | 193 | 14.5 | 27.4 | 0.00 | 0.00 | 0.00 | 43 | 1006.5 |
| 20260505170007 | 27 | 165 | 11.3 | 29.0 | 0.00 | 0.00 | 0.00 | 45 | 1006.7 |
| 20260505164501 | 27 | 174 | 4.8 | 22.5 | 0.00 | 0.00 | 0.00 | 50 | 1006.8 |
| 20260505163059 | 27 | 182 | 16.1 | 25.7 | 0.00 | 0.00 | 0.00 | 43 | 1007.1 |
| 20260505161605 | 26 | 169 | 16.1 | 30.6 | 0.00 | 0.00 | 0.00 | 43 | 1007.4 |
| 20260505153101 | 26 | 197 | 12.9 | 20.9 | 0.00 | 0.00 | 0.00 | 47 | 1007.9 |
| 20260505151600 | 26 | 140 | 12.9 | 33.8 | 0.00 | 0.00 | 0.00 | 49 | 1007.8 |
| 20260505124523 | 18 | 164 | 9.7 | 22.5 | 0.00 | 0.00 | 0.00 | 67 | 1008.7 |
| 20260505123014 | 18 | 146 | 12.9 | 19.3 | 0.00 | 0.00 | 0.00 | 66 | 1008.9 |
| 20260505121512 | 17 | 173 | 9.7 | 17.7 | 0.00 | 0.00 | 0.00 | 69 | 1009.0 |
| 20260505120020 | 17 | 174 | 6.4 | 12.9 | 0.00 | 0.00 | 0.00 | 69 | 1009.1 |
| 20260505114506 | 16 | 153 | 8.0 | 16.1 | 0.00 | 0.00 | 0.00 | 70 | 1009.0 |
| 20260505113003 | 16 | 185 | 6.4 | 14.5 | 0.00 | 0.00 | 0.00 | 72 | 1008.7 |
| 20260505111503 | 15 | 159 | 8.0 | 14.5 | 0.00 | 0.00 | 0.00 | 74 | 1008.6 |
| 20260505101556 | 15 | 162 | 4.8 | 11.3 | 0.00 | 0.00 | 0.00 | 73 | 1008.1 |
| 20260505100054 | 15 | 185 | 4.8 | 16.1 | 0.00 | 0.00 | 0.00 | 73 | 1007.9 |
| 20260505094553 | 15 | 153 | 6.4 | 19.3 | 0.00 | 0.00 | 0.00 | 74 | 1007.9 |
| 20260505093058 | 15 | 145 | 3.2 | 17.7 | 0.00 | 0.00 | 0.00 | 74 | 1007.7 |
| 20260505091602 | 15 | 144 | 4.8 | 19.3 | 0.00 | 0.00 | 0.00 | 74 | 1007.7 |
| 20260505090050 | 15 | 150 | 4.8 | 17.7 | 0.00 | 0.00 | 0.00 | 74 | 1007.7 |
| 20260505084552 | 15 | 157 | 3.2 | 14.5 | 0.00 | 0.00 | 0.00 | 73 | 1007.7 |
| 20260505083054 | 15 | 158 | 3.2 | 12.9 | 0.00 | 0.00 | 0.00 | 72 | 1007.5 |
| 20260505081550 | 15 | 152 | 6.4 | 19.3 | 0.00 | 0.00 | 0.00 | 73 | 1007.5 |
| 20260505080049 | 15 | 123 | 8.0 | 17.7 | 0.00 | 0.00 | 0.00 | 74 | 1007.5 |
| 20260505074547 | 13 | 182 | 4.8 | 16.1 | 0.00 | 0.00 | 0.00 | 76 | 1007.5 |
| 20260505073147 | 13 | 160 | 3.2 | 14.5 | 0.00 | 0.00 | 0.00 | 76 | 1007.3 |
| 20260505071554 | 13 | 159 | 1.6 | 8.0 | 0.00 | 0.00 | 0.00 | 76 | 1007.3 |
| 20260505070041 | 13 | 171 | 3.2 | 9.7 | 0.00 | 0.00 | 0.00 | 76 | 1007.2 |
| 20260505064541 | 14 | 142 | 3.2 | 8.0 | 0.00 | 0.00 | 0.00 | 77 | 1007.2 |
| 20260505063038 | 14 | 159 | 4.8 | 9.7 | 0.00 | 0.00 | 0.00 | 77 | 1007.3 |
| 20260505061537 | 14 | 152 | 4.8 | 11.3 | 0.00 | 0.00 | 0.00 | 77 | 1007.5 |
| 20260505060045 | 14 | 162 | 1.6 | 11.3 | 0.00 | 0.00 | 0.00 | 75 | 1007.6 |
| 20260505054534 | 15 | 167 | 3.2 | 11.3 | 0.00 | 0.00 | 0.00 | 74 | 1007.6 |
| 20260505053030 | 15 | 150 | 3.2 | 9.7 | 0.00 | 0.00 | 0.00 | 72 | 1007.7 |
| 20260505051527 | 16 | 188 | 3.2 | 11.3 | 0.00 | 0.00 | 0.00 | 71 | 1007.7 |